{"data":{"norad_id":62167,"intl_designator":"2024-225E","name":"STARLINK-32506","alt_names":[],"object_type":"PAYLOAD","status":"ACTIVE","operator":null,"country":"US","launch_date":"2024-11-30","launch_site_code":"AFWTR","launch_vehicle":null,"mission":null,"orbit_class":"UNKNOWN","rcs_meters":null,"size_class":null,"mass_kg":null,"dimensions":null,"purposes":["comms"],"wikipedia_slug":null,"has_3d_model":false,"image_url":null,"decayed_at":null,"tle_current":{"epoch":"2026-05-24T22:48:37.145952Z","epoch_age_seconds":75411,"freshness":"FRESH","line1":"1 62167U 24225E   26144.95042993  .00001110  00000+0  10080-3 0  9999","line2":"2 62167  70.0012 332.3576 0002763 263.4408  96.6436 14.98318634 81299","mean_motion":14.98318634,"eccentricity":0.0002763,"inclination_deg":70.0012,"raan_deg":332.3576,"arg_perigee_deg":263.4408,"mean_anomaly_deg":96.6436,"bstar":0.0001008,"rev_number":8129,"period_min":96.107728177663,"perigee_km":570.17069157669,"apogee_km":574.01138759136,"semimajor_km":6950.228039584,"source":"CELESTRAK","updated_at":"2026-05-25T13:38:19.600948Z"}}}